owner,sensor,date,latitude,longitude,vertical_datum,direction_of_sea_water_velocity,sea_water_speed,upward_sea_water_velocity,qcFlag 
TABS,ioos:station:wmo:42045:1,2009-10-01T00:00:00Z,26.2168,-96.4998,2.0,40.57955828,2.843958509,-99999.0,'11133222,11111222,99999999' 
TABS,ioos:station:wmo:42045:1,2009-10-01T00:30:00Z,26.2168,-96.4998,2.0,6.524294567,3.784507894,-99999.0,'11133222,11111222,99999999' 
TABS,ioos:station:wmo:42045:1,2009-10-01T01:00:00Z,26.2168,-96.4998,2.0,271.5626422,1.100409015,-99999.0,'11133222,11111222,99999999' 
TABS,ioos:station:wmo:42045:1,2009-10-01T01:30:00Z,26.2168,-96.4998,2.0,272.6988336,4.885417075,-99999.0,'11133222,11111222,99999999' 
TABS,ioos:station:wmo:42045:1,2009-10-01T02:00:00Z,26.2168,-96.4998,2.0,294.2861893,2.698833081,-99999.0,'11133222,11111222,99999999' 
TABS,ioos:station:wmo:42045:1,2009-10-01T02:30:00Z,26.2168,-96.4998,2.0,333.3325411,4.99091174,-99999.0,'11133222,11111222,99999999' 
TABS,ioos:station:wmo:42045:1,2009-10-01T03:00:00Z,26.2168,-96.4998,2.0,337.3040915,8.086161017,-99999.0,'11133222,11111222,99999999' 
TABS,ioos:station:wmo:42045:1,2009-10-01T03:30:00Z,26.2168,-96.4998,2.0,311.3035328,9.650875608,-99999.0,'11133222,11111222,99999999' 
TABS,ioos:station:wmo:42045:1,2009-10-01T04:00:00Z,26.2168,-96.4998,2.0,322.158112,10.72554428,-99999.0,'11111222,11111222,99999999' 
TABS,ioos:station:wmo:42045:1,2009-10-01T04:30:00Z,26.2168,-96.4998,2.0,340.3850543,7.983282533,-99999.0,'11133222,11111222,99999999' 
TABS,ioos:station:wmo:42045:1,2009-10-01T05:00:00Z,26.2168,-96.4998,2.0,329.5675982,7.956161135,-99999.0,'11133222,11111222,99999999' 
TABS,ioos:station:wmo:42045:1,2009-10-01T05:30:00Z,26.2168,-96.4998,2.0,339.1910897,9.00757459,-99999.0,'11133222,11111222,99999999' 
TABS,ioos:station:wmo:42045:1,2009-10-01T06:00:00Z,26.2168,-96.4998,2.0,341.4636568,10.69483988,-99999.0,'11111222,11111222,99999999' 
TABS,ioos:station:wmo:42045:1,2009-10-01T06:30:00Z,26.2168,-96.4998,2.0,344.2675652,11.46968613,-99999.0,'11111222,11111222,99999999' 
TABS,ioos:station:wmo:42045:1,2009-10-01T07:00:00Z,26.2168,-96.4998,2.0,353.370688,13.33919413,-99999.0,'11111222,11111222,99999999' 
TABS,ioos:station:wmo:42045:1,2009-10-01T07:30:00Z,26.2168,-96.4998,2.0,356.5689489,14.53605861,-99999.0,'11111222,11111222,99999999' 
TABS,ioos:station:wmo:42045:1,2009-10-01T08:00:00Z,26.2168,-96.4998,2.0,7.887688425,16.03166866,-99999.0,'11111222,11111222,99999999' 
TABS,ioos:station:wmo:42045:1,2009-10-01T08:30:00Z,26.2168,-96.4998,2.0,10.06691654,18.07831851,-99999.0,'11111222,11111222,99999999' 
TABS,ioos:station:wmo:42045:1,2009-10-01T09:00:00Z,26.2168,-96.4998,2.0,18.30197394,20.41255741,-99999.0,'11111222,11111222,99999999' 
TABS,ioos:station:wmo:42045:1,2009-10-01T09:30:00Z,26.2168,-96.4998,2.0,9.208693682,18.18435041,-99999.0,'11111222,11111222,99999999' 
TABS,ioos:station:wmo:42045:1,2009-10-01T10:00:00Z,26.2168,-96.4998,2.0,15.02523626,18.12981246,-99999.0,'11111222,11111222,99999999' 
TABS,ioos:station:wmo:42045:1,2009-10-01T10:30:00Z,26.2168,-96.4998,2.0,25.29928771,16.80144339,-99999.0,'11111222,11111222,99999999' 
TABS,ioos:station:wmo:42045:1,2009-10-01T11:00:00Z,26.2168,-96.4998,2.0,22.35843295,18.53327008,-99999.0,'11111222,11111222,99999999' 
TABS,ioos:station:wmo:42045:1,2009-10-01T11:30:00Z,26.2168,-96.4998,2.0,19.95218047,17.31954099,-99999.0,'11111222,11111222,99999999' 
TABS,ioos:station:wmo:42045:1,2009-10-01T12:00:00Z,26.2168,-96.4998,2.0,17.61666262,17.71056182,-99999.0,'11111222,11111222,99999999' 
TABS,ioos:station:wmo:42045:1,2009-10-01T12:30:00Z,26.2168,-96.4998,2.0,18.82311687,21.01381688,-99999.0,'11111222,11111222,99999999' 
TABS,ioos:station:wmo:42045:1,2009-10-01T13:00:00Z,26.2168,-96.4998,2.0,18.90253184,20.15702855,-99999.0,'11111222,11111222,99999999' 
TABS,ioos:station:wmo:42045:1,2009-10-01T13:30:00Z,26.2168,-96.4998,2.0,26.88278658,21.78410889,-99999.0,'11111222,11111222,99999999' 
TABS,ioos:station:wmo:42045:1,2009-10-01T14:00:00Z,26.2168,-96.4998,2.0,22.07170202,19.69320949,-99999.0,'11111222,11111222,99999999' 
TABS,ioos:station:wmo:42045:1,2009-10-01T14:30:00Z,26.2168,-96.4998,2.0,31.27656279,17.91329395,-99999.0,'11111222,11111222,99999999' 
TABS,ioos:station:wmo:42045:1,2009-10-01T15:00:00Z,26.2168,-96.4998,2.0,30.93066688,17.7432466,-99999.0,'11111222,11111222,99999999' 
TABS,ioos:station:wmo:42045:1,2009-10-01T15:30:00Z,26.2168,-96.4998,2.0,26.24930667,19.46750369,-99999.0,'11111222,11111222,99999999' 
TABS,ioos:station:wmo:42045:1,2009-10-01T16:00:00Z,26.2168,-96.4998,2.0,30.23200229,16.78250577,-99999.0,'11111222,11111222,99999999' 
TABS,ioos:station:wmo:42045:1,2009-10-01T16:30:00Z,26.2168,-96.4998,2.0,39.91301227,14.35423979,-99999.0,'11111222,11111222,99999999' 
TABS,ioos:station:wmo:42045:1,2009-10-01T17:00:00Z,26.2168,-96.4998,2.0,39.45925584,17.57594379,-99999.0,'11111222,11111222,99999999' 
TABS,ioos:station:wmo:42045:1,2009-10-01T17:30:00Z,26.2168,-96.4998,2.0,39.0607775,20.09068441,-99999.0,'11111222,11111222,99999999' 
TABS,ioos:station:wmo:42045:1,2009-10-01T18:00:00Z,26.2168,-96.4998,2.0,33.5124637,19.6697636,-99999.0,'11111222,11111222,99999999' 
TABS,ioos:station:wmo:42045:1,2009-10-01T18:30:00Z,26.2168,-96.4998,2.0,40.53237236,21.60411998,-99999.0,'11111222,11111222,99999999' 
TABS,ioos:station:wmo:42045:1,2009-10-01T19:00:00Z,26.2168,-96.4998,2.0,43.4803349,21.59556667,-99999.0,'11111222,11111222,99999999' 
TABS,ioos:station:wmo:42045:1,2009-10-01T19:30:00Z,26.2168,-96.4998,2.0,43.942821,20.69346757,-99999.0,'11111222,11111222,99999999' 
TABS,ioos:station:wmo:42045:1,2009-10-01T20:00:00Z,26.2168,-96.4998,2.0,43.93825986,16.02579171,-99999.0,'11111222,11111222,99999999' 
TABS,ioos:station:wmo:42045:1,2009-10-01T20:30:00Z,26.2168,-96.4998,2.0,50.30856194,15.43871756,-99999.0,'11111222,11111222,99999999' 
TABS,ioos:station:wmo:42045:1,2009-10-01T21:00:00Z,26.2168,-96.4998,2.0,54.74609323,13.61741532,-99999.0,'11111222,11111222,99999999' 
TABS,ioos:station:wmo:42045:1,2009-10-01T21:30:00Z,26.2168,-96.4998,2.0,50.23492387,12.71022423,-99999.0,'11111222,11111222,99999999' 
TABS,ioos:station:wmo:42045:1,2009-10-01T22:00:00Z,26.2168,-96.4998,2.0,65.13142442,12.84065808,-99999.0,'11111222,11111222,99999999' 
TABS,ioos:station:wmo:42045:1,2009-10-01T22:30:00Z,26.2168,-96.4998,2.0,59.40437706,13.61555361,-99999.0,'11111222,11111222,99999999' 
TABS,ioos:station:wmo:42045:1,2009-10-01T23:00:00Z,26.2168,-96.4998,2.0,59.49735355,14.06676935,-99999.0,'11111222,11111222,99999999' 
TABS,ioos:station:wmo:42045:1,2009-10-01T23:30:00Z,26.2168,-96.4998,2.0,54.53224962,11.44342606,-99999.0,'11111222,11111222,99999999' 
TABS,ioos:station:wmo:42045:1,2009-10-02T00:00:00Z,26.2168,-96.4998,2.0,74.91697545,13.14277368,-99999.0,'11111222,11111222,99999999' 
TABS,ioos:station:wmo:42045:1,2009-10-02T00:30:00Z,26.2168,-96.4998,2.0,53.47891791,8.872164336,-99999.0,'11133222,11111222,99999999' 
TABS,ioos:station:wmo:42045:1,2009-10-02T01:00:00Z,26.2168,-96.4998,2.0,48.05627832,4.907229361,-99999.0,'11133222,11111222,99999999' 
TABS,ioos:station:wmo:42045:1,2009-10-02T01:30:00Z,26.2168,-96.4998,2.0,31.13237259,7.581985228,-99999.0,'11133222,11111222,99999999' 
TABS,ioos:station:wmo:42045:1,2009-10-02T02:00:00Z,26.2168,-96.4998,2.0,13.19239453,10.86677505,-99999.0,'11111222,11111222,99999999' 
TABS,ioos:station:wmo:42045:1,2009-10-02T02:30:00Z,26.2168,-96.4998,2.0,11.3710909,5.52851698,-99999.0,'11133222,11111222,99999999' 
TABS,ioos:station:wmo:42045:1,2009-10-02T03:00:00Z,26.2168,-96.4998,2.0,357.787496,10.87811105,-99999.0,'11111222,11111222,99999999' 
TABS,ioos:station:wmo:42045:1,2009-10-02T03:30:00Z,26.2168,-96.4998,2.0,15.08712543,8.068091472,-99999.0,'11133222,11111222,99999999' 
TABS,ioos:station:wmo:42045:1,2009-10-02T04:00:00Z,26.2168,-96.4998,2.0,27.20939607,12.72850345,-99999.0,'11111222,11111222,99999999' 
TABS,ioos:station:wmo:42045:1,2009-10-02T04:30:00Z,26.2168,-96.4998,2.0,5.554614964,10.95142,-99999.0,'11111222,11111222,99999999' 
TABS,ioos:station:wmo:42045:1,2009-10-02T05:00:00Z,26.2168,-96.4998,2.0,6.825968488,14.72436416,-99999.0,'11111222,11111222,99999999' 
TABS,ioos:station:wmo:42045:1,2009-10-02T05:30:00Z,26.2168,-96.4998,2.0,7.267147871,13.5185872,-99999.0,'11111222,11111222,99999999' 
TABS,ioos:station:wmo:42045:1,2009-10-02T06:00:00Z,26.2168,-96.4998,2.0,8.953174116,15.16476179,-99999.0,'11111222,11111222,99999999' 
TABS,ioos:station:wmo:42045:1,2009-10-02T06:30:00Z,26.2168,-96.4998,2.0,10.76356054,16.65297871,-99999.0,'11111222,11111222,99999999' 
TABS,ioos:station:wmo:42045:1,2009-10-02T07:00:00Z,26.2168,-96.4998,2.0,1.845799662,18.31950327,-99999.0,'11111222,11111222,99999999' 
TABS,ioos:station:wmo:42045:1,2009-10-02T07:30:00Z,26.2168,-96.4998,2.0,358.8067238,15.36333297,-99999.0,'11111222,11111222,99999999' 
TABS,ioos:station:wmo:42045:1,2009-10-02T08:00:00Z,26.2168,-96.4998,2.0,6.821710145,14.98608688,-99999.0,'11111222,11111222,99999999' 
TABS,ioos:station:wmo:42045:1,2009-10-02T08:30:00Z,26.2168,-96.4998,2.0,357.719573,16.08273919,-99999.0,'11111222,11111222,99999999' 
TABS,ioos:station:wmo:42045:1,2009-10-02T09:00:00Z,26.2168,-96.4998,2.0,349.6396117,19.29459251,-99999.0,'11111222,11111222,99999999' 
TABS,ioos:station:wmo:42045:1,2009-10-02T09:30:00Z,26.2168,-96.4998,2.0,352.6961755,17.06850316,-99999.0,'11111222,11111222,99999999' 
TABS,ioos:station:wmo:42045:1,2009-10-02T10:00:00Z,26.2168,-96.4998,2.0,6.308121365,21.57059341,-99999.0,'11111222,11111222,99999999' 
TABS,ioos:station:wmo:42045:1,2009-10-02T10:30:00Z,26.2168,-96.4998,2.0,359.6505668,24.58045768,-99999.0,'11111222,11144222,99999999' 
TABS,ioos:station:wmo:42045:1,2009-10-02T11:00:00Z,26.2168,-96.4998,2.0,8.677807194,21.60734135,-99999.0,'11111222,11111222,99999999' 
TABS,ioos:station:wmo:42045:1,2009-10-02T11:30:00Z,26.2168,-96.4998,2.0,1.820542605,22.35127961,-99999.0,'11111222,11111222,99999999' 
TABS,ioos:station:wmo:42045:1,2009-10-02T12:00:00Z,26.2168,-96.4998,2.0,17.06948116,22.68946231,-99999.0,'11111222,11111222,99999999' 
TABS,ioos:station:wmo:42045:1,2009-10-02T12:30:00Z,26.2168,-96.4998,2.0,11.22578073,21.31784698,-99999.0,'11111222,11111222,99999999' 
TABS,ioos:station:wmo:42045:1,2009-10-02T13:00:00Z,26.2168,-96.4998,2.0,11.21862843,23.33588867,-99999.0,'11111222,11111222,99999999' 
TABS,ioos:station:wmo:42045:1,2009-10-02T13:30:00Z,26.2168,-96.4998,2.0,17.26459514,21.36248113,-99999.0,'11111222,11111222,99999999' 
TABS,ioos:station:wmo:42045:1,2009-10-02T14:00:00Z,26.2168,-96.4998,2.0,20.35671776,20.84164341,-99999.0,'11111222,11111222,99999999' 
TABS,ioos:station:wmo:42045:1,2009-10-02T14:30:00Z,26.2168,-96.4998,2.0,21.0594389,20.78847998,-99999.0,'11111222,11111222,99999999' 
TABS,ioos:station:wmo:42045:1,2009-10-02T15:00:00Z,26.2168,-96.4998,2.0,29.6130989,22.62523591,-99999.0,'11111222,11111222,99999999' 
TABS,ioos:station:wmo:42045:1,2009-10-02T15:30:00Z,26.2168,-96.4998,2.0,33.6901992,23.36397227,-99999.0,'11111222,11111222,99999999' 
TABS,ioos:station:wmo:42045:1,2009-10-02T16:00:00Z,26.2168,-96.4998,2.0,32.8588901,23.13065931,-99999.0,'11111222,11111222,99999999' 
TABS,ioos:station:wmo:42045:1,2009-10-02T16:30:00Z,26.2168,-96.4998,2.0,35.69974832,22.62071838,-99999.0,'11111222,11111222,99999999' 
TABS,ioos:station:wmo:42045:1,2009-10-02T17:00:00Z,26.2168,-96.4998,2.0,34.85069182,25.88207295,-99999.0,'11111222,11111222,99999999' 
TABS,ioos:station:wmo:42045:1,2009-10-02T17:30:00Z,26.2168,-96.4998,2.0,35.97485027,25.60312481,-99999.0,'11111222,11111222,99999999' 
TABS,ioos:station:wmo:42045:1,2009-10-02T18:00:00Z,26.2168,-96.4998,2.0,32.06517634,22.39670735,-99999.0,'11111222,11111222,99999999' 
TABS,ioos:station:wmo:42045:1,2009-10-02T18:30:00Z,26.2168,-96.4998,2.0,35.81324764,21.03757828,-99999.0,'11111222,11111222,99999999' 
TABS,ioos:station:wmo:42045:1,2009-10-02T19:00:00Z,26.2168,-96.4998,2.0,37.11759065,20.36619012,-99999.0,'11111222,11111222,99999999' 
TABS,ioos:station:wmo:42045:1,2009-10-02T19:30:00Z,26.2168,-96.4998,2.0,43.04324842,20.08647555,-99999.0,'11111222,11111222,99999999' 
TABS,ioos:station:wmo:42045:1,2009-10-02T20:00:00Z,26.2168,-96.4998,2.0,44.94739536,15.37250793,-99999.0,'11111222,11111222,99999999' 
TABS,ioos:station:wmo:42045:1,2009-10-02T20:30:00Z,26.2168,-96.4998,2.0,55.51586505,18.20978308,-99999.0,'11111222,11111222,99999999' 
TABS,ioos:station:wmo:42045:1,2009-10-02T21:00:00Z,26.2168,-96.4998,2.0,57.89941732,15.29897055,-99999.0,'11111222,11111222,99999999' 
TABS,ioos:station:wmo:42045:1,2009-10-02T21:30:00Z,26.2168,-96.4998,2.0,46.62952007,16.16392588,-99999.0,'11111222,11111222,99999999' 
TABS,ioos:station:wmo:42045:1,2009-10-02T22:00:00Z,26.2168,-96.4998,2.0,53.20376577,10.90200899,-99999.0,'11111222,11111222,99999999' 
TABS,ioos:station:wmo:42045:1,2009-10-02T22:30:00Z,26.2168,-96.4998,2.0,64.47112272,10.13999014,-99999.0,'11111222,11111222,99999999' 
TABS,ioos:station:wmo:42045:1,2009-10-02T23:00:00Z,26.2168,-96.4998,2.0,70.20116994,3.985599077,-99999.0,'11133222,11111222,99999999' 
TABS,ioos:station:wmo:42045:1,2009-10-02T23:30:00Z,26.2168,-96.4998,2.0,36.16185818,5.016383159,-99999.0,'11133222,11111222,99999999' 
TABS,ioos:station:wmo:42045:1,2009-10-03T00:00:00Z,26.2168,-96.4998,2.0,51.77224936,4.55727989,-99999.0,'11133222,11111222,99999999' 
TABS,ioos:station:wmo:42045:1,2009-10-03T00:30:00Z,26.2168,-96.4998,2.0,43.80246132,4.05967979,-99999.0,'11133222,11111222,99999999' 
TABS,ioos:station:wmo:42045:1,2009-10-03T01:00:00Z,26.2168,-96.4998,2.0,14.77472618,0.941116358,-99999.0,'11133222,11111222,99999999' 
TABS,ioos:station:wmo:42045:1,2009-10-03T01:30:00Z,26.2168,-96.4998,2.0,318.9033269,3.635890537,-99999.0,'11133222,11111222,99999999' 
TABS,ioos:station:wmo:42045:1,2009-10-03T02:00:00Z,26.2168,-96.4998,2.0,284.5916391,3.254980799,-99999.0,'11133222,11111222,99999999' 
TABS,ioos:station:wmo:42045:1,2009-10-03T02:30:00Z,26.2168,-96.4998,2.0,314.5612772,7.38241153,-99999.0,'11133222,11111222,99999999' 
TABS,ioos:station:wmo:42045:1,2009-10-03T03:00:00Z,26.2168,-96.4998,2.0,311.8364395,4.227871805,-99999.0,'11133222,11111222,99999999' 
TABS,ioos:station:wmo:42045:1,2009-10-03T03:30:00Z,26.2168,-96.4998,2.0,296.324926,8.523966213,-99999.0,'11133222,11111222,99999999' 
TABS,ioos:station:wmo:42045:1,2009-10-03T04:00:00Z,26.2168,-96.4998,2.0,290.0179588,7.098859063,-99999.0,'11133222,11111222,99999999' 
TABS,ioos:station:wmo:42045:1,2009-10-03T04:30:00Z,26.2168,-96.4998,2.0,291.0521366,8.657857703,-99999.0,'11133222,11111222,99999999' 
TABS,ioos:station:wmo:42045:1,2009-10-03T05:00:00Z,26.2168,-96.4998,2.0,300.2700288,12.45857135,-99999.0,'11111222,11111222,99999999' 
TABS,ioos:station:wmo:42045:1,2009-10-03T05:30:00Z,26.2168,-96.4998,2.0,294.8184147,13.05576118,-99999.0,'11111222,11111222,99999999' 
TABS,ioos:station:wmo:42045:1,2009-10-03T06:00:00Z,26.2168,-96.4998,2.0,304.0930075,12.63083529,-99999.0,'11111222,11111222,99999999' 
TABS,ioos:station:wmo:42045:1,2009-10-03T06:30:00Z,26.2168,-96.4998,2.0,316.4026218,11.55758625,-99999.0,'11111222,11111222,99999999' 
TABS,ioos:station:wmo:42045:1,2009-10-03T07:00:00Z,26.2168,-96.4998,2.0,311.5180037,14.78461701,-99999.0,'11111222,11111222,99999999' 
TABS,ioos:station:wmo:42045:1,2009-10-03T07:30:00Z,26.2168,-96.4998,2.0,316.6536758,11.0283861,-99999.0,'11111222,11111222,99999999' 
TABS,ioos:station:wmo:42045:1,2009-10-03T08:00:00Z,26.2168,-96.4998,2.0,323.3799352,12.85812195,-99999.0,'11111222,11111222,99999999' 
TABS,ioos:station:wmo:42045:1,2009-10-03T08:30:00Z,26.2168,-96.4998,2.0,303.5592986,8.484161715,-99999.0,'11133222,11111222,99999999' 
TABS,ioos:station:wmo:42045:1,2009-10-03T09:00:00Z,26.2168,-96.4998,2.0,346.3159001,15.00596215,-99999.0,'11111222,11111222,99999999' 
TABS,ioos:station:wmo:42045:1,2009-10-03T09:30:00Z,26.2168,-96.4998,2.0,346.496564,11.22018271,-99999.0,'11111222,11111222,99999999' 
TABS,ioos:station:wmo:42045:1,2009-10-03T10:00:00Z,26.2168,-96.4998,2.0,345.1439306,14.74282537,-99999.0,'11111222,11111222,99999999' 
TABS,ioos:station:wmo:42045:1,2009-10-03T10:30:00Z,26.2168,-96.4998,2.0,1.605210216,16.06630325,-99999.0,'11111222,11111222,99999999' 
TABS,ioos:station:wmo:42045:1,2009-10-03T11:00:00Z,26.2168,-96.4998,2.0,6.844417989,15.69182271,-99999.0,'11111222,11111222,99999999' 
TABS,ioos:station:wmo:42045:1,2009-10-03T11:30:00Z,26.2168,-96.4998,2.0,0.631030807,15.44093585,-99999.0,'11111222,11111222,99999999' 
TABS,ioos:station:wmo:42045:1,2009-10-03T12:00:00Z,26.2168,-96.4998,2.0,17.77713471,14.87001009,-99999.0,'11111222,11111222,99999999' 
TABS,ioos:station:wmo:42045:1,2009-10-03T12:30:00Z,26.2168,-96.4998,2.0,18.17307786,15.90326067,-99999.0,'11111222,11111222,99999999' 
TABS,ioos:station:wmo:42045:1,2009-10-03T13:00:00Z,26.2168,-96.4998,2.0,19.11767241,13.00737099,-99999.0,'11111222,11111222,99999999' 
TABS,ioos:station:wmo:42045:1,2009-10-03T13:30:00Z,26.2168,-96.4998,2.0,12.39126729,18.50096754,-99999.0,'11111222,11111222,99999999' 
TABS,ioos:station:wmo:42045:1,2009-10-03T14:00:00Z,26.2168,-96.4998,2.0,27.15711779,12.55395555,-99999.0,'11111222,11111222,99999999' 
TABS,ioos:station:wmo:42045:1,2009-10-03T14:30:00Z,26.2168,-96.4998,2.0,17.79568239,14.16788622,-99999.0,'11111222,11111222,99999999' 
TABS,ioos:station:wmo:42045:1,2009-10-03T15:00:00Z,26.2168,-96.4998,2.0,22.27605622,13.4540886,-99999.0,'11111222,11111222,99999999' 
TABS,ioos:station:wmo:42045:1,2009-10-03T15:30:00Z,26.2168,-96.4998,2.0,25.21445083,11.57263151,-99999.0,'11111222,11111222,99999999' 
TABS,ioos:station:wmo:42045:1,2009-10-03T16:00:00Z,26.2168,-96.4998,2.0,39.40911821,15.16889251,-99999.0,'11111222,11111222,99999999' 
TABS,ioos:station:wmo:42045:1,2009-10-03T16:30:00Z,26.2168,-96.4998,2.0,43.95085174,13.51507677,-99999.0,'11111222,11111222,99999999' 
TABS,ioos:station:wmo:42045:1,2009-10-03T17:00:00Z,26.2168,-96.4998,2.0,39.72485381,9.075263082,-99999.0,'11133222,11111222,99999999' 
TABS,ioos:station:wmo:42045:1,2009-10-03T17:30:00Z,26.2168,-96.4998,2.0,31.94082674,11.26566465,-99999.0,'11111222,11111222,99999999' 
TABS,ioos:station:wmo:42045:1,2009-10-03T18:00:00Z,26.2168,-96.4998,2.0,14.15928506,10.17924359,-99999.0,'11111222,11111222,99999999' 
TABS,ioos:station:wmo:42045:1,2009-10-03T18:30:00Z,26.2168,-96.4998,2.0,21.83999662,8.306154345,-99999.0,'11133222,11111222,99999999' 
TABS,ioos:station:wmo:42045:1,2009-10-03T19:00:00Z,26.2168,-96.4998,2.0,20.1708167,5.74216858,-99999.0,'11133222,11111222,99999999' 
TABS,ioos:station:wmo:42045:1,2009-10-03T19:30:00Z,26.2168,-96.4998,2.0,351.9207416,9.605342264,-99999.0,'11133222,11111222,99999999' 
TABS,ioos:station:wmo:42045:1,2009-10-03T20:00:00Z,26.2168,-96.4998,2.0,347.5344536,6.902731343,-99999.0,'11133222,11111222,99999999' 
TABS,ioos:station:wmo:42045:1,2009-10-03T20:30:00Z,26.2168,-96.4998,2.0,350.6712122,7.772805156,-99999.0,'11133222,11111222,99999999' 
TABS,ioos:station:wmo:42045:1,2009-10-03T21:00:00Z,26.2168,-96.4998,2.0,347.0944361,7.253226868,-99999.0,'11133222,11111222,99999999' 
TABS,ioos:station:wmo:42045:1,2009-10-03T21:30:00Z,26.2168,-96.4998,2.0,344.2718113,4.35298748,-99999.0,'11133222,11111222,99999999' 
TABS,ioos:station:wmo:42045:1,2009-10-03T22:00:00Z,26.2168,-96.4998,2.0,339.5321499,6.863300955,-99999.0,'11133222,11111222,99999999' 
TABS,ioos:station:wmo:42045:1,2009-10-03T22:30:00Z,26.2168,-96.4998,2.0,1.98134538,6.363803894,-99999.0,'11133222,11111222,99999999' 
TABS,ioos:station:wmo:42045:1,2009-10-03T23:00:00Z,26.2168,-96.4998,2.0,329.1514129,5.987027643,-99999.0,'11133222,11111222,99999999' 
TABS,ioos:station:wmo:42045:1,2009-10-03T23:30:00Z,26.2168,-96.4998,2.0,334.9166751,4.670471068,-99999.0,'11133222,11111222,99999999' 
TABS,ioos:station:wmo:42045:1,2009-10-04T00:00:00Z,26.2168,-96.4998,2.0,335.9678669,7.489198889,-99999.0,'11133222,11111222,99999999' 
TABS,ioos:station:wmo:42045:1,2009-10-04T00:30:00Z,26.2168,-96.4998,2.0,301.7036052,7.839853315,-99999.0,'11133222,11111222,99999999' 
TABS,ioos:station:wmo:42045:1,2009-10-04T01:00:00Z,26.2168,-96.4998,2.0,321.1723362,5.853417805,-99999.0,'11133222,11111222,99999999' 
TABS,ioos:station:wmo:42045:1,2009-10-04T01:30:00Z,26.2168,-96.4998,2.0,311.1567717,10.97068822,-99999.0,'11111222,11111222,99999999' 
TABS,ioos:station:wmo:42045:1,2009-10-04T02:00:00Z,26.2168,-96.4998,2.0,304.0196914,10.13453995,-99999.0,'11111222,11111222,99999999' 
TABS,ioos:station:wmo:42045:1,2009-10-04T02:30:00Z,26.2168,-96.4998,2.0,324.5229375,13.24991321,-99999.0,'11111222,11111222,99999999' 
TABS,ioos:station:wmo:42045:1,2009-10-04T03:00:00Z,26.2168,-96.4998,2.0,309.7465252,13.5911221,-99999.0,'11111222,11111222,99999999' 
TABS,ioos:station:wmo:42045:1,2009-10-04T03:30:00Z,26.2168,-96.4998,2.0,324.3709624,21.80111006,-99999.0,'11111222,11111222,99999999' 
TABS,ioos:station:wmo:42045:1,2009-10-04T04:00:00Z,26.2168,-96.4998,2.0,336.2871714,19.59433592,-99999.0,'11111222,11111222,99999999' 
TABS,ioos:station:wmo:42045:1,2009-10-04T04:30:00Z,26.2168,-96.4998,2.0,334.8354412,18.4843853,-99999.0,'11111222,11111222,99999999' 
TABS,ioos:station:wmo:42045:1,2009-10-04T05:00:00Z,26.2168,-96.4998,2.0,336.3153445,19.49182906,-99999.0,'11111222,11111222,99999999' 
TABS,ioos:station:wmo:42045:1,2009-10-04T05:30:00Z,26.2168,-96.4998,2.0,330.521823,25.34057024,-99999.0,'11111222,11111222,99999999' 
TABS,ioos:station:wmo:42045:1,2009-10-04T06:00:00Z,26.2168,-96.4998,2.0,338.115928,21.81179727,-99999.0,'11111222,11111222,99999999' 
TABS,ioos:station:wmo:42045:1,2009-10-04T06:30:00Z,26.2168,-96.4998,2.0,351.299877,24.72450606,-99999.0,'11111222,11111222,99999999' 
TABS,ioos:station:wmo:42045:1,2009-10-04T07:00:00Z,26.2168,-96.4998,2.0,354.3580394,25.83516402,-99999.0,'11111222,11111222,99999999' 
TABS,ioos:station:wmo:42045:1,2009-10-04T07:30:00Z,26.2168,-96.4998,2.0,346.8410653,26.61897819,-99999.0,'11111222,11111222,99999999' 
TABS,ioos:station:wmo:42045:1,2009-10-04T08:00:00Z,26.2168,-96.4998,2.0,5.545773278,21.42025443,-99999.0,'11111222,11111222,99999999' 
TABS,ioos:station:wmo:42045:1,2009-10-04T08:30:00Z,26.2168,-96.4998,2.0,356.8906662,28.94261391,-99999.0,'11111222,11111222,99999999' 
TABS,ioos:station:wmo:42045:1,2009-10-04T09:00:00Z,26.2168,-96.4998,2.0,4.553967789,26.07230331,-99999.0,'11111222,11111222,99999999' 
TABS,ioos:station:wmo:42045:1,2009-10-04T09:30:00Z,26.2168,-96.4998,2.0,4.57723733,29.32351446,-99999.0,'11111222,11111222,99999999' 
TABS,ioos:station:wmo:42045:1,2009-10-04T10:00:00Z,26.2168,-96.4998,2.0,18.61095212,26.7909425,-99999.0,'11111222,11111222,99999999' 
TABS,ioos:station:wmo:42045:1,2009-10-04T10:30:00Z,26.2168,-96.4998,2.0,14.91775015,29.32845206,-99999.0,'11111222,11111222,99999999' 
TABS,ioos:station:wmo:42045:1,2009-10-04T11:00:00Z,26.2168,-96.4998,2.0,11.24837551,29.11934065,-99999.0,'11111222,11111222,99999999' 
TABS,ioos:station:wmo:42045:1,2009-10-04T11:30:00Z,26.2168,-96.4998,2.0,18.86061007,34.49191355,-99999.0,'11111222,11111222,99999999' 
TABS,ioos:station:wmo:42045:1,2009-10-04T12:00:00Z,26.2168,-96.4998,2.0,18.68780369,27.9642933,-99999.0,'11111222,11111222,99999999' 
TABS,ioos:station:wmo:42045:1,2009-10-04T12:30:00Z,26.2168,-96.4998,2.0,23.06676313,30.78093566,-99999.0,'11111222,11111222,99999999' 
TABS,ioos:station:wmo:42045:1,2009-10-04T13:00:00Z,26.2168,-96.4998,2.0,18.8615645,28.89136895,-99999.0,'11111222,11111222,99999999' 
TABS,ioos:station:wmo:42045:1,2009-10-04T13:30:00Z,26.2168,-96.4998,2.0,37.05016993,27.3521352,-99999.0,'11111222,11111222,99999999' 
TABS,ioos:station:wmo:42045:1,2009-10-04T14:00:00Z,26.2168,-96.4998,2.0,35.82392335,26.0723455,-99999.0,'11111222,11111222,99999999' 
TABS,ioos:station:wmo:42045:1,2009-10-04T14:30:00Z,26.2168,-96.4998,2.0,30.40879331,26.55265712,-99999.0,'11111222,11111222,99999999' 
TABS,ioos:station:wmo:42045:1,2009-10-04T15:00:00Z,26.2168,-96.4998,2.0,33.63739912,21.0675224,-99999.0,'11111222,11111222,99999999' 
TABS,ioos:station:wmo:42045:1,2009-10-04T15:30:00Z,26.2168,-96.4998,2.0,21.42462937,16.3712553,-99999.0,'11111222,11111222,99999999' 
TABS,ioos:station:wmo:42045:1,2009-10-04T16:00:00Z,26.2168,-96.4998,2.0,28.15668398,20.450022,-99999.0,'11111222,11111222,99999999' 